COSMOS 2539

Last updated on Tue Jul 08 2025 00:02:47 GMT+0000 (Coordinated Universal Time)

1 44457U 19048A 25187.63795947 .00000098 00000+0 00000+0 0 9994 2 44457 0.0341 96.8540 0000557 47.1504 22.5266 1.00273433 21766
UTC large
Height (km)
Speed (km/s)
/
Latitude / Longitude
Inclination (degrees)
Orbital Period (minutes)
Azimuth
Elevation
Range (km)
Doppler Factor

Next 0 passes for location: London (51.5072 / 0.1276)

Sorry there are no passes over London.